Weather in Solonovka

Russia / Altai Krai     52°00′17″N   84°37′34″E
temp.,
°C
wind,
m/s
gust,
m/s
humid.,
%
clouds,
%
prec.,
mm/h
press.,
hPa
HPBL,
m
7 may, fri
fri701:00+16s4755100 0.0 100582
04:00+19ssw61339100 0.0 1005259
07:00+16ssw3453100 0.0 100764
10:00+18w5855100 0.0 1010624
13:00+18wnw5766100 0.0 1011998
16:00+12w3790100 3.8 1015577
19:00+12sw3678100 5.1 1016409
22:00+10ssw2386100 0.0 101940
8 may, sat
sat801:00+9ssw2285100 0.0 102022
04:00+8sw2285100 0.0 102113
07:00+9sw11825 0.0 102228
10:00+14nw22575 0.0 1021748
13:00+16nw22410 0.0 10201159
16:00+18nw23330 0.0 10191234
19:00+17wnw12410 0.0 1019700
22:00+11s21540 0.0 102011
9 may, sun
sun901:00+10s32590 0.0 102028
04:00+9s33620 0.0 101932
07:00+10s23640 0.0 101945
10:00+17s014110 0.0 1017687
13:00+20n323561 0.0 10161598
16:00+20n22335 0.0 10151734
19:00+19nne244297 0.0 1014990
22:00+12ene247241 0.0 101664
10 may, mon
mon1001:00+8ene357630 0.0 1016138
04:00+6ene24764 0.0 101595
07:00+6ene2574100 0.0 1014175
10:00+10ne3362100 0.0 1012413
13:00+14ne3358100 0.0 1010775
16:00+16ne455511 0.0 1008977
19:00+15ne455859 0.1 1008845
22:00+11ene227099 0.0 100842
11 may, tue
tue1101:00+10n1172100 0.0 100927
04:00+9n1175100 0.4 100934
07:00+7nnw1189100 1.6 101086
10:00+8nw128395 0.1 1011245
13:00+9sw2376100 0.4 1011279
16:00+8sw2388100 1.7 1012212
19:00+8sw2390100 2.4 1013130
22:00+8sw2490100 0.0 1014104